Weather History for Weslaco, TX

Change the Weather History Date:

Tuesday, April 1, 2014

  Actual Average (KMFE) Record (KMFE)
Temperature  
Mean Temperature 75 °F 74 °F  
Max Temperature 80 °F 85 °F 98 °F (1952)
Min Temperature 70 °F 63 °F 39 °F (1924)
Degree Days  
Heating Degree Days 0 1  
Month to date heating degree days 1  
Since 1 July heating degree days 572  
Cooling Degree Days 10 10  
Month to date cooling degree days 10  
Year to date cooling degree days 387  
Growing Degree Days 25 (Base 50)    
Moisture  
Dew Point 69 °F    
Average Humidity 79    
Maximum Humidity 89    
Minimum Humidity 67    
Precipitation  
Precipitation 0.00 in 0.03 in 1.58 in (1992)
Month to date precipitation 0.03  
Year to date precipitation 3.22  
Sea Level Pressure  
Sea Level Pressure 29.89 in    
Wind  
Wind Speed 10 mph (SSE)    
Max Wind Speed 17 mph    
Max Gust Speed 23 mph    
Visibility 8 miles    
Events Rain    
T = Trace of Precipitation, MM = Missing Value Source: NWS Daily Summary

Daily Weather History Graph

Daily Weather History Graph

Search for Another Location

Airport:

Trip Planner

Search our weather history database for the weather conditions in past years. The results will help you decide how hot, cold, wet, or windy it might be!

Date:

Astronomy

Apr. 01, 2014 Rise Set
Actual Time 7:22 AM CDT 7:48 PM CDT
Civil Twilight 6:59 AM CDT 8:12 PM CDT
Nautical Twilight 6:32 AM CDT 8:39 PM CDT
Astronomical Twilight 6:05 AM CDT 9:06 PM CDT
Moon 8:37 AM CDT (4/1) 9:58 PM CDT (4/1)
Length of Visible Light 13h 12m
Length of Day
12h 25m
Waxing Crescent, 5% of the Moon is Illuminated
Apr 1
Waxing Crescent
Apr 7
First Quarter
Apr 15
Full
Apr 22
Last Quarter
Apr 29
New

Hourly Weather History & Observations

Time (CDT) Temp. Heat Index Dew Point Humidity Pressure Visibility Wind Dir Wind Speed Gust Speed Precip Events Conditions
12:15 AM 72.0 °F - 66.6 °F 83% 29.92 in 10.0 mi SSE 11.5 mph 16.1 mph N/A   Mostly Cloudy
12:35 AM 72.0 °F - 66.6 °F 83% 29.92 in 10.0 mi SSE 12.7 mph 17.3 mph N/A   Mostly Cloudy
1:15 AM 70.5 °F - 66.7 °F 88% 29.91 in 10.0 mi SE 5.8 mph - N/A   Overcast
1:35 AM 70.3 °F - 67.1 °F 89% 29.91 in 7.0 mi SSE 6.9 mph - N/A   Overcast
1:55 AM 70.9 °F - 67.5 °F 89% 29.90 in 7.0 mi SSE 9.2 mph - N/A   Overcast
2:15 AM 71.6 °F - 67.6 °F 87% 29.90 in 10.0 mi SSE 10.4 mph - N/A   Overcast
2:35 AM 71.6 °F - 67.6 °F 87% 29.90 in 10.0 mi SSE 8.1 mph - N/A   Overcast
2:55 AM 72.0 °F - 68.0 °F 87% 29.89 in 10.0 mi SSE 8.1 mph - N/A   Overcast
3:15 AM 72.5 °F - 68.2 °F 86% 29.89 in 10.0 mi SSE 8.1 mph - N/A   Overcast
3:35 AM 72.5 °F - 68.4 °F 87% 29.89 in 7.0 mi SSE 6.9 mph - N/A   Overcast
3:55 AM 72.5 °F - 68.4 °F 87% 29.88 in 7.0 mi SSE 4.6 mph - N/A   Overcast
4:15 AM 72.5 °F - 68.5 °F 87% 29.88 in 7.0 mi SSE 5.8 mph - N/A   Overcast
4:35 AM 72.9 °F - 68.9 °F 87% 29.87 in 7.0 mi SSE 8.1 mph - N/A Rain Light Rain
4:55 AM 72.7 °F - 68.9 °F 88% 29.87 in 7.0 mi South 9.2 mph - N/A   Overcast
5:15 AM 73.0 °F - 68.9 °F 87% 29.87 in 7.0 mi South 8.1 mph - N/A   Overcast
5:35 AM 73.4 °F - 68.9 °F 86% 29.87 in 7.0 mi SSE 10.4 mph - N/A   Overcast
5:55 AM 73.4 °F - 68.9 °F 86% 29.88 in 7.0 mi SSE 8.1 mph - N/A   Overcast
6:15 AM 73.4 °F - 68.9 °F 86% 29.88 in 7.0 mi SSE 6.9 mph - N/A   Overcast
6:35 AM 73.4 °F - 69.3 °F 87% 29.88 in 7.0 mi SSE 8.1 mph - N/A   Overcast
6:55 AM 73.4 °F - 69.3 °F 87% 29.88 in 7.0 mi SSE 8.1 mph - N/A   Overcast
7:15 AM 73.6 °F - 69.3 °F 86% 29.89 in 7.0 mi SSE 8.1 mph - N/A   Overcast
7:35 AM 73.6 °F - 69.3 °F 86% 29.90 in 7.0 mi SSE 6.9 mph - N/A   Overcast
7:55 AM 73.8 °F - 69.4 °F 86% 29.91 in 7.0 mi SSE 8.1 mph - N/A   Overcast
8:15 AM 74.3 °F - 69.3 °F 84% 29.91 in 7.0 mi SSE 8.1 mph - N/A   Overcast
8:35 AM 74.7 °F - 69.4 °F 84% 29.91 in 10.0 mi SSE 9.2 mph - N/A   Overcast
8:55 AM 74.8 °F - 69.4 °F 83% 29.92 in 7.0 mi SSE 10.4 mph - N/A   Overcast
9:15 AM 75.2 °F - 69.3 °F 82% 29.93 in 7.0 mi SSE 11.5 mph - N/A   Overcast
9:35 AM 75.6 °F - 69.4 °F 81% 29.93 in 7.0 mi SSE 11.5 mph - N/A   Overcast
9:55 AM 76.1 °F - 69.4 °F 80% 29.93 in 7.0 mi SSE 12.7 mph 18.4 mph N/A   Overcast
10:15 AM 76.3 °F - 69.4 °F 79% 29.94 in 7.0 mi South 11.5 mph - N/A   Overcast
10:35 AM 76.6 °F - 69.3 °F 78% 29.94 in 7.0 mi SSE 13.8 mph 18.4 mph N/A   Overcast
10:55 AM 77.2 °F - 69.1 °F 76% 29.94 in 7.0 mi SSE 15.0 mph 18.4 mph N/A   Overcast
11:15 AM 77.5 °F - 68.9 °F 75% 29.95 in 5.0 mi South 12.7 mph 20.7 mph N/A   Haze
11:35 AM 77.0 °F - 68.9 °F 76% 29.95 in 7.0 mi South 12.7 mph - N/A   Overcast
11:55 AM 77.0 °F - 69.4 °F 77% 29.95 in 5.0 mi South 13.8 mph 17.3 mph N/A   Haze
12:15 PM 77.7 °F - 68.9 °F 74% 29.94 in 5.0 mi SSE 11.5 mph - N/A   Haze
12:35 PM 77.4 °F - 69.4 °F 76% 29.93 in 7.0 mi SSE 10.4 mph - N/A Rain Light Rain
12:55 PM 77.9 °F - 69.3 °F 75% 29.93 in 7.0 mi SSE 9.2 mph 19.6 mph N/A   Overcast
1:15 PM 78.3 °F - 68.9 °F 73% 29.92 in 7.0 mi SSE 12.7 mph 17.3 mph N/A   Overcast
1:35 PM 77.9 °F - 68.5 °F 73% 29.92 in 7.0 mi SSE 12.7 mph 18.4 mph N/A   Overcast
1:55 PM 79.2 °F - 68.9 °F 71% 29.91 in 7.0 mi SE 17.3 mph 21.9 mph N/A   Overcast
2:15 PM 79.7 °F - 68.9 °F 69% 29.90 in 7.0 mi SSE 16.1 mph 20.7 mph N/A   Overcast
2:35 PM 79.3 °F - 68.5 °F 69% 29.89 in 7.0 mi SSE 12.7 mph 19.6 mph N/A   Overcast
2:55 PM 79.3 °F - 68.2 °F 69% 29.89 in 7.0 mi SSE 13.8 mph 21.9 mph N/A   Overcast
3:15 PM 79.7 °F - 68.4 °F 68% 29.88 in 10.0 mi SSE 13.8 mph 21.9 mph N/A   Overcast
3:35 PM 79.9 °F - 68.4 °F 68% 29.87 in 10.0 mi SE 13.8 mph 19.6 mph N/A   Overcast
3:55 PM 79.9 °F - 68.5 °F 68% 29.86 in 10.0 mi SE 16.1 mph 20.7 mph N/A   Overcast
4:15 PM 80.1 °F 82.7 °F 68.4 °F 67% 29.86 in 7.0 mi SE 16.1 mph 21.9 mph N/A   Overcast
4:35 PM 80.2 °F 83.2 °F 69.1 °F 69% 29.85 in 10.0 mi SE 11.5 mph 19.6 mph N/A   Overcast
4:55 PM 79.3 °F - 68.9 °F 70% 29.85 in 7.0 mi SE 11.5 mph - N/A   Overcast
5:15 PM 79.0 °F - 69.3 °F 72% 29.84 in 7.0 mi SE 12.7 mph 19.6 mph N/A   Overcast
5:35 PM 79.2 °F - 69.1 °F 71% 29.84 in 7.0 mi SE 12.7 mph 16.1 mph N/A   Overcast
5:55 PM 79.3 °F - 68.9 °F 70% 29.83 in 7.0 mi SE 11.5 mph 17.3 mph N/A   Overcast
6:15 PM 79.7 °F - 68.9 °F 69% 29.83 in 7.0 mi SE 12.7 mph - N/A   Overcast
6:35 PM 79.9 °F - 68.4 °F 68% 29.83 in 7.0 mi SE 11.5 mph 20.7 mph N/A   Overcast
6:55 PM 79.0 °F - 68.4 °F 70% 29.83 in 7.0 mi SE 13.8 mph 19.6 mph N/A   Overcast
7:15 PM 78.3 °F - 68.4 °F 71% 29.83 in 7.0 mi SSE 11.5 mph 21.9 mph N/A   Overcast
7:35 PM 77.9 °F - 68.5 °F 73% 29.84 in 7.0 mi SE 15.0 mph 20.7 mph N/A   Overcast
7:55 PM 77.2 °F - 68.2 °F 74% 29.84 in 10.0 mi SE 10.4 mph 21.9 mph N/A   Overcast
8:15 PM 77.0 °F - 68.0 °F 74% 29.85 in 10.0 mi SE 12.7 mph 23.0 mph N/A   Overcast
8:35 PM 76.5 °F - 68.4 °F 76% 29.85 in 10.0 mi SE 15.0 mph 21.9 mph N/A   Overcast
8:55 PM 75.7 °F - 68.7 °F 79% 29.86 in 10.0 mi SSE 15.0 mph 21.9 mph N/A   Overcast
9:15 PM 75.4 °F - 68.9 °F 80% 29.86 in 10.0 mi SE 11.5 mph 17.3 mph N/A   Overcast
9:35 PM 75.4 °F - 69.1 °F 81% 29.86 in 10.0 mi SE 8.1 mph 16.1 mph N/A   Overcast
9:55 PM 75.2 °F - 69.1 °F 81% 29.86 in 10.0 mi SE 13.8 mph - N/A   Overcast
10:15 PM 75.2 °F - 69.1 °F 81% 29.87 in 10.0 mi SE 11.5 mph 20.7 mph N/A   Overcast
10:35 PM 74.8 °F - 69.3 °F 83% 29.87 in 10.0 mi SE 9.2 mph - N/A   Overcast
10:55 PM 75.2 °F - 69.4 °F 82% 29.88 in 10.0 mi SSE 10.4 mph - N/A   Overcast
11:15 PM 74.8 °F - 69.4 °F 83% 29.88 in 10.0 mi SSE 9.2 mph - N/A   Overcast
11:35 PM 75.2 °F - 69.4 °F 82% 29.88 in 10.0 mi SSE 16.1 mph 21.9 mph N/A   Overcast
11:55 PM 74.8 °F - 69.8 °F 84% 29.88 in 10.0 mi SSE 11.5 mph 18.4 mph N/A   Overcast